User: anonymous   Login
Location: Unspecified
(0.0000°N, 0.0000°E)
Time: 10:06:54
(UTC+00:00)
Language:

NAVSTAR 65 (USA 213) - Orbit

View from above orbital plane
View from above orbital plane
View from above satellite
View from above satellite

Ground track
Ground track

The orbit data is extracted from the following two-line orbital elements,

1 36585U 10022A   15184.35148442 -.00000053  00000-0  00000+0 0  9990
2 36585 056.0580 008.9297 0045095 040.7398 310.6756 02.00565477 37332
Epoch (UTC): 03 July 2015 08:26:08
Eccentricity: 0.0045095
inclination: 56.0580°
perigee height: 20062 km
apogee height: 20301 km
right ascension of ascending node: 8.9297°
argument of perigee: 40.7398°
revolutions per day: 2.00565477
mean anomaly at epoch: 310.6756°
orbit number at epoch: 3733

The dashed part of the orbit path shows where the satellite is in the earth's shadow,  

DLR